Location: Winnipauk Village
(41.1295°N, 73.4171°W)
Time: 15:35:52
(UTC+00:00)

N. Korean satellite - Pass Details

Date: 07 August 2021
Orbit: 448 x 499 km, 97.3° (Epoch: 16 September)

Event Time Altitude Azimuth Distance (km) Brightness Sun altitude
Rises 09:03:29 0° 37° (NE) 2,521 11.7 -9.5°
Reaches altitude 10° 09:07:24 10° 82° (E) 1,618 10.5 -8.9°
Maximum altitude 09:07:55 10° 90° (E) 1,600 10.2 -8.8°
Drops below altitude 10° 09:08:25 10° 99° (E) 1,612 10.0 -8.7°
Sets 09:12:16 0° 144° (SE) 2,463 10.2 -8.1°
